Time,TemperatureF,DewpointF,PressureIn,WindDirection,WindDirectionDegrees,WindSpeedMPH,WindSpeedGustMPH,Humidity,HourlyPrecipIn,Conditions,Clouds,dailyrainin,SoftwareType,DateUTC
2013-03-28 00:00:00,39.1,32.8,29.86,NNE,27,6.0,7.0,78,0.00,,OVC075,0.00,VWS V14.01,2013-03-28 04:00:00,
2013-03-28 00:05:00,39.0,32.7,29.86,WNW,290,0.0,8.0,78,0.00,,OVC085,0.00,VWS V14.01,2013-03-28 04:05:00,
2013-03-28 00:10:00,38.9,32.6,29.86,WNW,288,3.0,8.0,78,0.00,,OVC085,0.00,VWS V14.01,2013-03-28 04:10:00,
2013-03-28 00:15:00,38.8,32.9,29.86,NNW,343,6.0,8.0,79,0.00,,OVC085,0.00,VWS V14.01,2013-03-28 04:15:00,
2013-03-28 00:20:00,38.8,32.5,29.86,NW,306,6.0,11.0,78,0.00,,OVC085,0.00,VWS V14.01,2013-03-28 04:20:00,
2013-03-28 00:25:00,38.8,32.5,29.86,NE,35,3.0,11.0,78,0.00,,OVC085,0.00,VWS V14.01,2013-03-28 04:25:00,
2013-03-28 00:30:00,38.7,32.4,29.86,NE,36,3.0,11.0,78,0.00,,OVC085,0.00,VWS V14.01,2013-03-28 04:30:00,
2013-03-28 00:35:00,38.7,32.4,29.86,WNW,294,1.0,11.0,78,0.00,,OVC085,0.00,VWS V14.01,2013-03-28 04:35:00,
2013-03-28 00:40:00,38.7,32.8,29.86,WNW,290,3.0,11.0,79,0.00,,OVC085,0.00,VWS V14.01,2013-03-28 04:40:00,
2013-03-28 00:45:00,38.6,32.7,29.86,NNW,332,0.0,11.0,79,0.00,,OVC085,0.00,VWS V14.01,2013-03-28 04:45:00,
2013-03-28 00:50:00,38.6,32.7,29.86,WNW,299,3.0,11.0,79,0.00,,OVC085,0.00,VWS V14.01,2013-03-28 04:50:00,
2013-03-28 00:55:00,38.5,32.9,29.86,West,281,2.0,11.0,80,0.00,,OVC085,0.00,VWS V14.01,2013-03-28 04:55:00,
2013-03-28 01:00:00,38.4,32.8,29.86,NW,313,3.0,3.0,80,0.00,,OVC046,0.00,VWS V14.01,2013-03-28 05:00:00,
2013-03-28 01:05:00,38.3,33.0,29.86,NW,325,6.0,6.0,81,0.00,,OVC046,0.00,VWS V14.01,2013-03-28 05:05:00,
2013-03-28 01:10:00,38.3,33.0,29.86,NW,316,6.0,7.0,81,0.00,,OVC046,0.00,VWS V14.01,2013-03-28 05:10:00,
2013-03-28 01:15:00,38.2,33.2,29.86,NW,317,3.0,7.0,82,0.00,,OVC046,0.00,VWS V14.01,2013-03-28 05:15:00,
2013-03-28 01:20:00,38.2,33.2,29.86,West,259,3.0,10.0,82,0.00,,OVC046,0.00,VWS V14.01,2013-03-28 05:20:00,
2013-03-28 01:25:00,38.2,33.2,29.86,West,280,2.0,10.0,82,0.00,,OVC046,0.00,VWS V14.01,2013-03-28 05:25:00,
2013-03-28 01:30:00,38.2,33.2,29.86,NE,42,3.0,10.0,82,0.00,,OVC046,0.00,VWS V14.01,2013-03-28 05:30:00,
2013-03-28 01:35:00,38.2,33.2,29.86,WNW,292,1.0,10.0,82,0.00,,OVC046,0.00,VWS V14.01,2013-03-28 05:35:00,
2013-03-28 01:40:00,38.1,33.4,29.86,NW,320,0.0,10.0,83,0.00,,OVC046,0.00,VWS V14.01,2013-03-28 05:40:00,
2013-03-28 01:45:00,38.1,33.4,29.86,WNW,294,3.0,10.0,83,0.00,,OVC046,0.00,VWS V14.01,2013-03-28 05:45:00,
2013-03-28 01:50:00,38.0,33.3,29.86,NNE,20,2.0,10.0,83,0.00,,OVC046,0.00,VWS V14.01,2013-03-28 05:50:00,
2013-03-28 01:55:00,38.0,33.6,29.86,NNW,328,6.0,10.0,84,0.00,,OVC046,0.00,VWS V14.01,2013-03-28 05:55:00,
2013-03-28 02:00:00,37.9,33.5,29.86,NW,323,3.0,3.0,84,0.00,,OVC070,0.00,VWS V14.01,2013-03-28 06:00:00,
2013-03-28 02:05:00,37.9,33.8,29.86,NW,307,3.0,5.0,85,0.00,,OVC070,0.00,VWS V14.01,2013-03-28 06:05:00,
2013-03-28 02:10:00,37.7,33.6,29.86,NE,51,0.0,5.0,85,0.00,,OVC070,0.00,VWS V14.01,2013-03-28 06:10:00,
2013-03-28 02:15:00,37.6,33.5,29.86,East,79,2.0,8.0,85,0.00,,OVC070,0.00,VWS V14.01,2013-03-28 06:15:00,
2013-03-28 02:20:00,37.5,33.7,29.86,NNE,30,1.0,8.0,86,0.00,,OVC070,0.00,VWS V14.01,2013-03-28 06:20:00,
2013-03-28 02:25:00,37.4,33.9,29.86,North,355,3.0,8.0,87,0.00,,OVC070,0.00,VWS V14.01,2013-03-28 06:25:00,
2013-03-28 02:30:00,37.3,33.8,29.86,NW,323,3.0,8.0,87,0.00,,OVC070,0.00,VWS V14.01,2013-03-28 06:30:00,
2013-03-28 02:35:00,37.2,33.7,29.86,NNW,332,1.0,8.0,87,0.00,,OVC070,0.00,VWS V14.01,2013-03-28 06:35:00,
2013-03-28 02:40:00,37.1,33.9,29.86,WNW,295,4.0,8.0,88,0.01,,OVC070,0.01,VWS V14.01,2013-03-28 06:40:00,
2013-03-28 02:45:00,37.1,33.9,29.86,NE,55,4.0,8.0,88,0.01,,OVC070,0.01,VWS V14.01,2013-03-28 06:45:00,
2013-03-28 02:50:00,37.0,33.8,29.86,NNW,343,2.0,8.0,88,0.01,,OVC070,0.01,VWS V14.01,2013-03-28 06:50:00,
2013-03-28 02:55:00,36.9,34.0,29.86,NNW,332,3.0,8.0,89,0.01,,OVC070,0.01,VWS V14.01,2013-03-28 06:55:00,
2013-03-28 03:00:00,36.8,33.9,29.86,WNW,292,3.0,3.0,89,0.01,,OVC040,0.01,VWS V14.01,2013-03-28 07:00:00,
2013-03-28 03:05:00,36.7,34.0,29.86,NNE,31,2.0,4.0,90,0.01,,OVC040,0.01,VWS V14.01,2013-03-28 07:05:00,
2013-03-28 03:10:00,36.7,34.0,29.86,NW,323,0.0,4.0,90,0.01,,OVC040,0.01,VWS V14.01,2013-03-28 07:10:00,
2013-03-28 03:15:00,36.7,34.0,29.86,NNW,330,0.0,4.0,90,0.01,,OVC040,0.01,VWS V14.01,2013-03-28 07:15:00,
2013-03-28 03:20:00,36.6,34.0,29.86,NNW,331,2.0,6.0,90,0.01,,OVC040,0.01,VWS V14.01,2013-03-28 07:20:00,
2013-03-28 03:25:00,36.6,34.0,29.86,NW,313,2.0,6.0,90,0.01,,OVC040,0.01,VWS V14.01,2013-03-28 07:25:00,
2013-03-28 03:30:00,36.6,34.0,29.86,NW,307,2.0,6.0,90,0.01,,OVC040,0.01,VWS V14.01,2013-03-28 07:30:00,
2013-03-28 03:35:00,36.7,34.0,29.87,WNW,297,1.0,6.0,90,0.01,,OVC040,0.01,VWS V14.01,2013-03-28 07:35:00,
2013-03-28 03:40:00,36.6,34.0,29.87,NNW,348,1.0,6.0,90,0.01,,OVC040,0.01,VWS V14.01,2013-03-28 07:40:00,
2013-03-28 03:45:00,36.6,34.2,29.87,NNW,329,1.0,6.0,91,0.01,,OVC040,0.01,VWS V14.01,2013-03-28 07:45:00,
2013-03-28 03:50:00,36.6,34.2,29.86,WNW,301,2.0,6.0,91,0.01,,OVC040,0.01,VWS V14.01,2013-03-28 07:50:00,
2013-03-28 03:55:00,36.6,34.2,29.87,ENE,73,0.0,6.0,91,0.01,,OVC040,0.01,VWS V14.01,2013-03-28 07:55:00,
2013-03-28 04:00:00,36.5,34.1,29.87,WNW,286,3.0,3.0,91,0.00,,OVC040,0.01,VWS V14.01,2013-03-28 08:00:00,
2013-03-28 04:05:00,36.4,34.0,29.87,NW,313,3.0,6.0,91,0.00,,-RA,0.01,VWS V14.01,2013-03-28 08:05:00,
2013-03-28 04:10:00,36.4,34.0,29.87,NNE,32,0.0,6.0,91,0.00,,-RA,0.01,VWS V14.01,2013-03-28 08:10:00,
2013-03-28 04:15:00,36.3,33.9,29.87,NW,315,0.0,6.0,91,0.00,,-RA,0.01,VWS V14.01,2013-03-28 08:15:00,
2013-03-28 04:20:00,36.3,33.9,29.86,NNW,330,1.0,6.0,91,0.00,,-RA,0.01,VWS V14.01,2013-03-28 08:20:00,
2013-03-28 04:25:00,36.2,33.8,29.87,WNW,291,1.0,6.0,91,0.00,,-RA,0.01,VWS V14.01,2013-03-28 08:25:00,
2013-03-28 04:30:00,36.2,33.8,29.87,WNW,296,0.0,6.0,91,0.00,,-RA,0.01,VWS V14.01,2013-03-28 08:30:00,
2013-03-28 04:35:00,36.1,33.7,29.87,NNE,23,2.0,6.0,91,0.00,,-RA,0.01,VWS V14.01,2013-03-28 08:35:00,
2013-03-28 04:40:00,36.1,33.7,29.87,WNW,300,2.0,6.0,91,0.00,,-RA,0.01,VWS V14.01,2013-03-28 08:40:00,
2013-03-28 04:45:00,36.1,33.7,29.87,NNE,14,1.0,6.0,91,0.00,,-RA,0.01,VWS V14.01,2013-03-28 08:45:00,
2013-03-28 04:50:00,36.1,33.7,29.87,NNW,348,0.0,6.0,91,0.00,,-RA,0.01,VWS V14.01,2013-03-28 08:50:00,
2013-03-28 04:55:00,36.1,33.7,29.87,NW,311,0.0,6.0,91,0.00,,-RA,0.01,VWS V14.01,2013-03-28 08:55:00,
2013-03-28 05:00:00,36.1,33.7,29.87,WNW,290,0.0,4.0,91,0.00,,-RA,0.01,VWS V14.01,2013-03-28 09:00:00,
2013-03-28 05:06:00,36.0,33.6,29.87,WNW,290,1.0,4.0,91,0.00,,OVC070,0.01,VWS V14.01,2013-03-28 09:06:00,
2013-03-28 05:11:00,35.9,33.5,29.87,West,272,1.0,4.0,91,0.00,,OVC070,0.01,VWS V14.01,2013-03-28 09:11:00,
2013-03-28 05:16:00,35.9,33.5,29.87,WNW,295,0.0,4.0,91,0.00,,OVC070,0.01,VWS V14.01,2013-03-28 09:16:00,
2013-03-28 05:21:00,35.8,33.4,29.88,NNW,346,2.0,4.0,91,0.00,,OVC070,0.01,VWS V14.01,2013-03-28 09:21:00,
2013-03-28 05:25:00,35.8,33.4,29.87,NNW,337,1.0,4.0,91,0.00,,OVC070,0.01,VWS V14.01,2013-03-28 09:25:00,
2013-03-28 05:30:00,35.7,33.6,29.88,NNE,23,0.0,4.0,92,0.00,,OVC070,0.01,VWS V14.01,2013-03-28 09:30:00,
2013-03-28 05:35:00,35.7,33.6,29.88,NW,315,1.0,4.0,92,0.00,,OVC070,0.01,VWS V14.01,2013-03-28 09:35:00,
2013-03-28 05:41:00,35.6,33.2,29.88,NW,322,0.0,4.0,91,0.00,,OVC070,0.01,VWS V14.01,2013-03-28 09:41:00,
2013-03-28 05:46:00,35.6,33.5,29.88,ENE,57,0.0,4.0,92,0.00,,OVC070,0.01,VWS V14.01,2013-03-28 09:46:00,
2013-03-28 05:50:00,35.7,33.3,29.88,NNW,336,0.0,4.0,91,0.00,,OVC070,0.01,VWS V14.01,2013-03-28 09:50:00,
2013-03-28 05:55:00,35.6,33.2,29.88,North,349,1.0,4.0,91,0.00,,OVC070,0.01,VWS V14.01,2013-03-28 09:55:00,
2013-03-28 06:00:00,35.7,33.3,29.88,NNW,346,1.0,1.0,91,0.00,,OVC070,0.01,VWS V14.01,2013-03-28 10:00:00,
2013-03-28 06:05:00,35.7,33.3,29.88,NW,317,0.0,3.0,91,0.00,,OVC070,0.01,VWS V14.01,2013-03-28 10:05:00,
2013-03-28 06:10:00,35.7,33.3,29.88,NW,306,0.0,3.0,91,0.00,,OVC070,0.01,VWS V14.01,2013-03-28 10:10:00,
2013-03-28 06:15:00,35.7,33.3,29.88,NW,322,0.0,3.0,91,0.00,,OVC070,0.01,VWS V14.01,2013-03-28 10:15:00,
2013-03-28 06:20:00,35.8,33.4,29.88,NNW,346,1.0,3.0,91,0.00,,OVC070,0.01,VWS V14.01,2013-03-28 10:20:00,
2013-03-28 06:25:00,35.9,33.5,29.88,NNW,342,1.0,4.0,91,0.00,,OVC070,0.01,VWS V14.01,2013-03-28 10:25:00,
2013-03-28 06:30:00,35.9,33.5,29.89,NW,321,2.0,4.0,91,0.00,,OVC070,0.01,VWS V14.01,2013-03-28 10:30:00,
2013-03-28 06:35:00,36.0,33.6,29.89,NNW,329,1.0,5.0,91,0.00,,OVC070,0.01,VWS V14.01,2013-03-28 10:35:00,
2013-03-28 06:40:00,36.0,33.4,29.89,WNW,300,3.0,5.0,90,0.00,,OVC070,0.01,VWS V14.01,2013-03-28 10:40:00,
2013-03-28 06:45:00,36.0,33.4,29.89,NNE,20,5.0,6.0,90,0.00,,OVC070,0.01,VWS V14.01,2013-03-28 10:45:00,
2013-03-28 06:50:00,36.0,33.4,29.89,NNE,23,1.0,6.0,90,0.00,,OVC070,0.01,VWS V14.01,2013-03-28 10:50:00,
2013-03-28 06:55:00,36.0,33.4,29.89,NW,321,4.0,6.0,90,0.00,,OVC070,0.01,VWS V14.01,2013-03-28 10:55:00,
2013-03-28 07:00:00,35.9,33.3,29.90,NNW,329,1.0,3.0,90,0.00,,OVC110,0.01,VWS V14.01,2013-03-28 11:00:00,
2013-03-28 07:05:00,35.9,33.3,29.90,NNE,19,5.0,6.0,90,0.00,,OVC110,0.01,VWS V14.01,2013-03-28 11:05:00,
2013-03-28 07:10:00,36.0,33.1,29.90,North,5,1.0,6.0,89,0.00,,OVC110,0.01,VWS V14.01,2013-03-28 11:10:00,
2013-03-28 07:15:00,36.1,33.2,29.90,NW,320,2.0,6.0,89,0.00,,OVC110,0.01,VWS V14.01,2013-03-28 11:15:00,
2013-03-28 07:20:00,36.2,33.3,29.90,NNW,327,2.0,6.0,89,0.00,,OVC110,0.01,VWS V14.01,2013-03-28 11:20:00,
2013-03-28 07:25:00,36.2,33.3,29.90,ENE,57,5.0,6.0,89,0.00,,OVC110,0.01,VWS V14.01,2013-03-28 11:25:00,
2013-03-28 07:30:00,36.3,33.1,29.91,NW,311,2.0,6.0,88,0.00,,OVC110,0.01,VWS V14.01,2013-03-28 11:30:00,
2013-03-28 07:35:00,36.4,33.2,29.91,North,351,2.0,6.0,88,0.00,,OVC110,0.01,VWS V14.01,2013-03-28 11:35:00,
2013-03-28 07:40:00,36.5,33.3,29.91,WNW,296,0.0,6.0,88,0.00,,OVC110,0.01,VWS V14.01,2013-03-28 11:40:00,
2013-03-28 07:45:00,36.5,33.3,29.91,WNW,296,3.0,6.0,88,0.00,,OVC110,0.01,VWS V14.01,2013-03-28 11:45:00,
2013-03-28 07:50:00,36.6,33.4,29.91,NNE,17,1.0,6.0,88,0.00,,OVC110,0.01,VWS V14.01,2013-03-28 11:50:00,
2013-03-28 07:55:00,36.7,33.5,29.91,NNW,336,2.0,6.0,88,0.00,,OVC110,0.01,VWS V14.01,2013-03-28 11:55:00,
2013-03-28 08:00:00,36.8,33.3,29.91,NNE,22,0.0,3.0,87,0.00,,OVC110,0.01,VWS V14.01,2013-03-28 12:00:00,
2013-03-28 08:05:00,36.9,33.4,29.91,NNW,338,2.0,4.0,87,0.00,,OVC110,0.01,VWS V14.01,2013-03-28 12:05:00,
2013-03-28 08:10:00,37.1,33.6,29.91,North,11,1.0,5.0,87,0.00,,OVC110,0.01,VWS V14.01,2013-03-28 12:10:00,
2013-03-28 08:15:00,37.3,33.5,29.92,NNE,15,0.0,5.0,86,0.00,,OVC110,0.01,VWS V14.01,2013-03-28 12:15:00,
2013-03-28 08:20:00,37.6,33.8,29.92,NNW,348,0.0,5.0,86,0.00,,OVC110,0.01,VWS V14.01,2013-03-28 12:20:00,
2013-03-28 08:25:00,37.9,33.8,29.92,NNE,20,2.0,5.0,85,0.00,,OVC110,0.01,VWS V14.01,2013-03-28 12:25:00,
2013-03-28 08:30:00,38.4,34.3,29.92,NNE,26,0.0,5.0,85,0.00,,OVC110,0.01,VWS V14.01,2013-03-28 12:30:00,
2013-03-28 08:35:00,38.9,34.2,29.92,WNW,300,1.0,5.0,83,0.00,,OVC110,0.01,VWS V14.01,2013-03-28 12:35:00,
2013-03-28 08:40:00,39.4,34.1,29.92,NW,308,3.0,6.0,81,0.00,,OVC110,0.01,VWS V14.01,2013-03-28 12:40:00,
2013-03-28 08:45:00,39.9,34.5,29.92,NW,323,1.0,6.0,81,0.00,,OVC110,0.01,VWS V14.01,2013-03-28 12:45:00,
2013-03-28 08:50:00,40.4,34.4,29.92,NNW,330,4.0,10.0,79,0.00,,OVC110,0.01,VWS V14.01,2013-03-28 12:50:00,
2013-03-28 08:55:00,40.6,33.6,29.92,NW,320,5.0,10.0,76,0.00,,OVC110,0.01,VWS V14.01,2013-03-28 12:55:00,
2013-03-28 09:00:00,40.8,33.8,29.92,NNW,330,4.0,5.0,76,0.00,,OVC060,0.01,VWS V14.01,2013-03-28 13:00:00,
2013-03-28 09:05:00,41.0,33.7,29.92,ENE,68,4.0,6.0,75,0.00,,OVC060,0.01,VWS V14.01,2013-03-28 13:05:00,
2013-03-28 09:10:00,41.3,34.0,29.92,ENE,72,3.0,6.0,75,0.00,,OVC060,0.01,VWS V14.01,2013-03-28 13:10:00,
2013-03-28 09:15:00,41.7,33.7,29.92,NW,324,2.0,6.0,73,0.00,,OVC060,0.01,VWS V14.01,2013-03-28 13:15:00,
2013-03-28 09:20:00,42.0,33.6,29.92,NE,36,4.0,8.0,72,0.00,,OVC060,0.01,VWS V14.01,2013-03-28 13:20:00,
2013-03-28 09:25:00,41.9,33.5,29.92,NW,313,2.0,8.0,72,0.00,,OVC060,0.01,VWS V14.01,2013-03-28 13:25:00,
2013-03-28 09:30:00,42.0,33.3,29.92,North,351,2.0,8.0,71,0.00,,OVC060,0.01,VWS V14.01,2013-03-28 13:30:00,
2013-03-28 09:35:00,42.3,33.6,29.93,WNW,295,2.0,8.0,71,0.00,,OVC060,0.01,VWS V14.01,2013-03-28 13:35:00,
2013-03-28 09:40:00,42.4,33.3,29.93,NNE,33,3.0,8.0,70,0.00,,OVC060,0.01,VWS V14.01,2013-03-28 13:40:00,
2013-03-28 09:45:00,42.7,33.6,29.92,NNE,23,2.0,8.0,70,0.00,,OVC060,0.01,VWS V14.01,2013-03-28 13:45:00,
2013-03-28 09:50:00,43.2,33.7,29.92,West,266,3.0,8.0,69,0.00,,OVC060,0.01,VWS V14.01,2013-03-28 13:50:00,
2013-03-28 09:55:00,43.7,33.8,29.93,NNW,333,1.0,8.0,68,0.00,,OVC060,0.01,VWS V14.01,2013-03-28 13:55:00,
2013-03-28 10:00:00,44.1,34.2,29.93,NW,310,1.0,5.0,68,0.00,,BKN100,0.01,VWS V14.01,2013-03-28 14:00:00,
2013-03-28 10:05:00,44.2,32.8,29.93,NW,314,2.0,5.0,64,0.00,,BKN100,0.01,VWS V14.01,2013-03-28 14:05:00,
2013-03-28 10:10:00,44.3,31.7,29.93,NE,40,3.0,6.0,61,0.00,,BKN100,0.01,VWS V14.01,2013-03-28 14:10:00,
2013-03-28 10:15:00,44.4,31.8,29.93,NW,307,2.0,6.0,61,0.00,,BKN100,0.01,VWS V14.01,2013-03-28 14:15:00,
2013-03-28 10:20:00,44.3,31.3,29.93,ENE,58,4.0,11.0,60,0.00,,BKN100,0.01,VWS V14.01,2013-03-28 14:20:00,
2013-03-28 10:25:00,44.2,32.0,29.93,East,81,1.0,11.0,62,0.00,,BKN100,0.01,VWS V14.01,2013-03-28 14:25:00,
2013-03-28 10:30:00,44.3,31.7,29.93,NNW,348,8.0,11.0,61,0.00,,BKN100,0.01,VWS V14.01,2013-03-28 14:30:00,
2013-03-28 10:35:00,44.4,31.4,29.93,ENE,71,0.0,11.0,60,0.00,,BKN100,0.01,VWS V14.01,2013-03-28 14:35:00,
2013-03-28 10:40:00,44.7,32.1,29.93,NNE,12,3.0,11.0,61,0.00,,BKN100,0.01,VWS V14.01,2013-03-28 14:40:00,
2013-03-28 10:45:00,44.7,31.3,29.94,WNW,285,1.0,11.0,59,0.00,,BKN100,0.01,VWS V14.01,2013-03-28 14:45:00,
2013-03-28 10:50:00,45.2,31.7,29.94,NE,49,5.0,11.0,59,0.00,,BKN100,0.01,VWS V14.01,2013-03-28 14:50:00,
2013-03-28 10:55:00,45.3,31.8,29.94,NNW,348,2.0,11.0,59,0.00,,BKN100,0.01,VWS V14.01,2013-03-28 14:55:00,
2013-03-28 11:00:00,45.3,32.2,29.94,NNE,16,1.0,2.0,60,0.00,,OVC075,0.01,VWS V14.01,2013-03-28 15:00:00,
2013-03-28 11:05:00,45.7,31.4,29.94,ENE,78,2.0,4.0,57,0.00,,OVC075,0.01,VWS V14.01,2013-03-28 15:05:00,
2013-03-28 11:10:00,45.5,30.7,29.94,East,97,6.0,6.0,56,0.00,,OVC075,0.01,VWS V14.01,2013-03-28 15:10:00,
2013-03-28 11:15:00,45.5,31.2,29.94,NNW,333,1.0,6.0,57,0.00,,OVC075,0.01,VWS V14.01,2013-03-28 15:15:00,
2013-03-28 11:20:00,45.7,31.4,29.93,ENE,74,3.0,6.0,57,0.00,,OVC075,0.01,VWS V14.01,2013-03-28 15:20:00,
2013-03-28 11:25:00,46.1,31.3,29.93,ENE,59,2.0,6.0,56,0.00,,OVC075,0.01,VWS V14.01,2013-03-28 15:25:00,
2013-03-28 11:30:00,46.6,31.8,29.93,ENE,62,5.0,7.0,56,0.00,,OVC075,0.01,VWS V14.01,2013-03-28 15:30:00,
2013-03-28 11:35:00,46.9,31.1,29.93,West,267,2.0,7.0,54,0.00,,OVC075,0.01,VWS V14.01,2013-03-28 15:35:00,
2013-03-28 11:40:00,47.0,31.2,29.93,ESE,111,2.0,7.0,54,0.00,,OVC075,0.01,VWS V14.01,2013-03-28 15:40:00,
2013-03-28 11:45:00,47.1,30.4,29.93,NW,319,1.0,7.0,52,0.00,,OVC075,0.01,VWS V14.01,2013-03-28 15:45:00,
2013-03-28 11:50:00,46.9,29.7,29.93,ENE,67,1.0,7.0,51,0.00,,OVC075,0.01,VWS V14.01,2013-03-28 15:50:00,
2013-03-28 11:55:00,46.3,29.6,29.93,North,5,2.0,7.0,52,0.00,,OVC075,0.01,VWS V14.01,2013-03-28 15:55:00,
2013-03-28 12:00:00,46.2,30.0,29.93,ENE,63,2.0,5.0,53,0.00,,OVC075,0.01,VWS V14.01,2013-03-28 16:00:00,
2013-03-28 12:05:00,46.1,29.9,29.93,East,83,2.0,5.0,53,0.00,,OVC080,0.01,VWS V14.01,2013-03-28 16:05:00,
2013-03-28 12:10:00,46.3,30.6,29.93,WNW,297,2.0,5.0,54,0.00,,OVC080,0.01,VWS V14.01,2013-03-28 16:10:00,
2013-03-28 12:15:00,46.1,29.9,29.93,WNW,294,0.0,5.0,53,0.00,,OVC080,0.01,VWS V14.01,2013-03-28 16:15:00,
2013-03-28 12:20:00,46.0,30.8,29.93,NNE,28,1.0,6.0,55,0.00,,OVC080,0.01,VWS V14.01,2013-03-28 16:20:00,
2013-03-28 12:25:00,45.9,30.2,29.93,WNW,290,1.0,6.0,54,0.00,,OVC080,0.01,VWS V14.01,2013-03-28 16:25:00,
2013-03-28 12:30:00,45.8,30.1,29.93,NNE,32,0.0,6.0,54,0.00,,OVC080,0.01,VWS V14.01,2013-03-28 16:30:00,
2013-03-28 12:35:00,45.8,30.6,29.93,ENE,63,3.0,6.0,55,0.00,,OVC080,0.01,VWS V14.01,2013-03-28 16:35:00,
2013-03-28 12:40:00,46.0,30.3,29.93,North,350,1.0,6.0,54,0.00,,OVC080,0.01,VWS V14.01,2013-03-28 16:40:00,
2013-03-28 12:45:00,46.3,30.1,29.93,NW,310,1.0,6.0,53,0.00,,OVC080,0.01,VWS V14.01,2013-03-28 16:45:00,
2013-03-28 12:50:00,46.7,31.0,29.93,WNW,290,1.0,6.0,54,0.00,,OVC080,0.01,VWS V14.01,2013-03-28 16:50:00,
2013-03-28 12:55:00,47.0,30.8,29.93,WNW,303,2.0,6.0,53,0.00,,OVC080,0.01,VWS V14.01,2013-03-28 16:55:00,
2013-03-28 13:00:00,47.1,30.4,29.93,WNW,291,3.0,3.0,52,0.00,,OVC080,0.01,VWS V14.01,2013-03-28 17:00:00,
2013-03-28 13:05:00,47.0,30.3,29.93,WNW,299,1.0,4.0,52,0.00,,OVC080,0.01,VWS V14.01,2013-03-28 17:05:00,
2013-03-28 13:10:00,47.1,30.4,29.93,NW,320,2.0,8.0,52,0.00,,OVC080,0.01,VWS V14.01,2013-03-28 17:10:00,
2013-03-28 13:15:00,46.8,30.6,29.93,North,5,3.0,8.0,53,0.00,,OVC080,0.01,VWS V14.01,2013-03-28 17:15:00,
2013-03-28 13:20:00,46.5,30.8,29.93,WNW,289,3.0,8.0,54,0.00,,OVC080,0.01,VWS V14.01,2013-03-28 17:20:00,
2013-03-28 13:25:00,46.1,30.4,29.93,WNW,294,2.0,8.0,54,0.00,,OVC080,0.01,VWS V14.01,2013-03-28 17:25:00,
2013-03-28 13:30:00,46.0,30.8,29.93,ENE,59,0.0,8.0,55,0.00,,OVC080,0.01,VWS V14.01,2013-03-28 17:30:00,
2013-03-28 13:35:00,46.1,30.9,29.93,NW,304,1.0,8.0,55,0.00,,OVC080,0.01,VWS V14.01,2013-03-28 17:35:00,
2013-03-28 13:40:00,46.2,30.5,29.93,NNE,31,3.0,8.0,54,0.00,,OVC080,0.01,VWS V14.01,2013-03-28 17:40:00,
2013-03-28 13:45:00,46.1,29.9,29.93,NW,321,2.0,8.0,53,0.00,,OVC080,0.01,VWS V14.01,2013-03-28 17:45:00,
2013-03-28 13:50:00,46.2,30.5,29.93,NE,49,1.0,8.0,54,0.00,,OVC080,0.01,VWS V14.01,2013-03-28 17:50:00,
2013-03-28 13:55:00,46.2,30.0,29.93,NNW,340,1.0,8.0,53,0.00,,OVC080,0.01,VWS V14.01,2013-03-28 17:55:00,
2013-03-28 14:00:00,46.3,30.1,29.93,ENE,67,0.0,0.0,53,0.00,,BKN050,0.01,VWS V14.01,2013-03-28 18:00:00,
2013-03-28 14:05:00,46.6,29.9,29.92,NW,310,1.0,2.0,52,0.00,,BKN050,0.01,VWS V14.01,2013-03-28 18:05:00,
2013-03-28 14:10:00,46.8,29.6,29.92,WNW,299,5.0,6.0,51,0.00,,BKN050,0.01,VWS V14.01,2013-03-28 18:10:00,
2013-03-28 14:15:00,46.5,29.8,29.92,NNW,344,3.0,7.0,52,0.00,,BKN050,0.01,VWS V14.01,2013-03-28 18:15:00,
2013-03-28 14:20:00,46.4,30.2,29.92,WNW,303,2.0,7.0,53,0.00,,BKN050,0.01,VWS V14.01,2013-03-28 18:20:00,
2013-03-28 14:25:00,46.3,30.1,29.92,WNW,296,1.0,7.0,53,0.00,,BKN050,0.01,VWS V14.01,2013-03-28 18:25:00,
2013-03-28 14:30:00,46.5,30.3,29.92,NW,304,1.0,7.0,53,0.00,,BKN050,0.01,VWS V14.01,2013-03-28 18:30:00,
2013-03-28 14:35:00,46.8,30.1,29.92,NW,304,2.0,7.0,52,0.00,,BKN050,0.01,VWS V14.01,2013-03-28 18:35:00,
2013-03-28 14:40:00,47.1,30.4,29.92,NNW,330,4.0,7.0,52,0.00,,BKN050,0.01,VWS V14.01,2013-03-28 18:40:00,
2013-03-28 14:45:00,47.0,29.8,29.92,WNW,292,2.0,7.0,51,0.00,,BKN050,0.01,VWS V14.01,2013-03-28 18:45:00,
2013-03-28 14:50:00,46.9,29.7,29.92,NW,325,4.0,7.0,51,0.00,,BKN050,0.01,VWS V14.01,2013-03-28 18:50:00,
2013-03-28 14:55:00,46.9,30.2,29.93,ENE,76,1.0,7.0,52,0.00,,BKN050,0.01,VWS V14.01,2013-03-28 18:55:00,
2013-03-28 15:00:00,46.8,31.0,29.93,WNW,292,2.0,5.0,54,0.00,,OVC050,0.01,VWS V14.01,2013-03-28 19:00:00,
2013-03-28 15:05:00,46.5,31.2,29.93,NW,315,0.0,7.0,55,0.00,,OVC050,0.01,VWS V14.01,2013-03-28 19:05:00,
2013-03-28 15:10:00,46.2,31.4,29.93,WNW,292,4.0,7.0,56,0.00,,OVC050,0.01,VWS V14.01,2013-03-28 19:10:00,
2013-03-28 15:15:00,46.1,32.2,29.93,NNE,29,0.0,7.0,58,0.00,,OVC050,0.01,VWS V14.01,2013-03-28 19:15:00,
2013-03-28 15:20:00,46.3,31.9,29.93,SW,235,0.0,7.0,57,0.00,,OVC050,0.01,VWS V14.01,2013-03-28 19:20:00,
2013-03-28 15:25:00,46.6,31.8,29.93,SW,234,0.0,7.0,56,0.00,,OVC050,0.01,VWS V14.01,2013-03-28 19:25:00,
2013-03-28 15:30:00,46.8,32.0,29.93,WNW,285,0.0,7.0,56,0.00,,OVC050,0.01,VWS V14.01,2013-03-28 19:30:00,
2013-03-28 15:35:00,46.9,31.6,29.92,NW,311,0.0,7.0,55,0.00,,OVC050,0.01,VWS V14.01,2013-03-28 19:35:00,
2013-03-28 15:40:00,47.2,32.8,29.92,NW,311,0.0,7.0,57,0.00,,OVC050,0.01,VWS V14.01,2013-03-28 19:40:00,
2013-03-28 15:45:00,47.5,32.2,29.93,NNW,339,0.0,7.0,55,0.00,,OVC050,0.01,VWS V14.01,2013-03-28 19:45:00,
2013-03-28 15:50:00,47.2,31.4,29.93,ENE,66,1.0,7.0,54,0.00,,OVC050,0.01,VWS V14.01,2013-03-28 19:50:00,
2013-03-28 15:55:00,46.9,31.1,29.93,ENE,77,3.0,7.0,54,0.00,,OVC050,0.01,VWS V14.01,2013-03-28 19:55:00,
2013-03-28 16:00:00,46.3,31.5,29.93,ENE,67,2.0,4.0,56,0.00,,OVC050,0.01,VWS V14.01,2013-03-28 20:00:00,
2013-03-28 16:05:00,45.9,31.5,29.93,ESE,121,1.0,5.0,57,0.00,,OVC050,0.01,VWS V14.01,2013-03-28 20:05:00,
2013-03-28 16:10:00,45.6,31.7,29.93,East,88,2.0,5.0,58,0.00,,OVC050,0.01,VWS V14.01,2013-03-28 20:10:00,
2013-03-28 16:15:00,45.4,32.3,29.93,East,88,1.0,5.0,60,0.00,,OVC050,0.01,VWS V14.01,2013-03-28 20:15:00,
2013-03-28 16:20:00,45.3,32.7,29.94,ENE,61,2.0,5.0,61,0.00,,OVC050,0.01,VWS V14.01,2013-03-28 20:20:00,
2013-03-28 16:25:00,44.9,33.1,29.94,ENE,69,2.0,5.0,63,0.01,,OVC050,0.02,VWS V14.01,2013-03-28 20:25:00,
2013-03-28 16:31:00,44.3,34.4,29.94,NE,41,3.0,5.0,68,0.01,,OVC050,0.02,VWS V14.01,2013-03-28 20:31:00,
2013-03-28 16:35:00,43.6,34.5,29.94,ENE,62,1.0,5.0,70,0.01,,OVC050,0.02,VWS V14.01,2013-03-28 20:35:00,
2013-03-28 16:40:00,43.1,34.7,29.94,East,82,1.0,5.0,72,0.01,,OVC050,0.02,VWS V14.01,2013-03-28 20:40:00,
2013-03-28 16:46:00,43.0,35.0,29.94,ENE,65,0.0,5.0,73,0.01,,OVC050,0.02,VWS V14.01,2013-03-28 20:46:00,
2013-03-28 16:51:00,42.7,34.7,29.94,NE,51,0.0,5.0,73,0.01,,OVC050,0.02,VWS V14.01,2013-03-28 20:51:00,
2013-03-28 16:56:00,42.6,34.9,29.95,NE,51,0.0,5.0,74,0.01,,OVC050,0.02,VWS V14.01,2013-03-28 20:56:00,
2013-03-28 17:01:00,42.6,35.6,29.95,NE,51,0.0,0.0,76,0.01,,OVC050,0.02,VWS V14.01,2013-03-28 21:01:00,
2013-03-28 17:06:00,42.6,35.9,29.95,NE,51,0.0,0.0,77,0.01,,OVC050,0.02,VWS V14.01,2013-03-28 21:06:00,
2013-03-28 17:11:00,42.5,35.8,29.94,NE,51,0.0,0.0,77,0.01,,OVC050,0.02,VWS V14.01,2013-03-28 21:11:00,
2013-03-28 17:16:00,42.5,35.8,29.94,NE,51,0.0,0.0,77,0.01,,OVC050,0.02,VWS V14.01,2013-03-28 21:16:00,
2013-03-28 17:21:00,42.5,35.5,29.94,NE,51,0.0,0.0,76,0.01,,OVC050,0.02,VWS V14.01,2013-03-28 21:21:00,
2013-03-28 17:26:00,42.5,35.5,29.94,NE,51,0.0,0.0,76,0.01,,OVC050,0.02,VWS V14.01,2013-03-28 21:26:00,
2013-03-28 17:31:00,42.6,35.6,29.95,NE,51,0.0,0.0,76,0.01,,OVC050,0.02,VWS V14.01,2013-03-28 21:31:00,
2013-03-28 17:36:00,42.7,35.3,29.95,NE,51,0.0,0.0,75,0.01,,OVC050,0.02,VWS V14.01,2013-03-28 21:36:00,
2013-03-28 17:41:00,42.8,35.8,29.95,NE,51,0.0,0.0,76,0.01,,OVC050,0.02,VWS V14.01,2013-03-28 21:41:00,
2013-03-28 17:46:00,42.9,35.9,29.95,NE,51,0.0,0.0,76,0.01,,OVC050,0.02,VWS V14.01,2013-03-28 21:46:00,
2013-03-28 17:51:00,42.9,35.5,29.95,NE,51,0.0,0.0,75,0.01,,OVC050,0.02,VWS V14.01,2013-03-28 21:51:00,
2013-03-28 17:56:00,43.1,35.4,29.95,NE,51,0.0,0.0,74,0.01,,OVC050,0.02,VWS V14.01,2013-03-28 21:56:00,
2013-03-28 18:01:00,43.2,35.5,29.95,NE,51,0.0,0.0,74,0.00,,-RA,0.02,VWS V14.01,2013-03-28 22:01:00,
2013-03-28 18:06:00,43.2,35.5,29.95,NE,51,0.0,0.0,74,0.00,,-RA,0.02,VWS V14.01,2013-03-28 22:06:00,
2013-03-28 18:11:00,43.2,35.5,29.95,NE,51,0.0,0.0,74,0.00,,-RA,0.02,VWS V14.01,2013-03-28 22:11:00,
2013-03-28 18:16:00,43.3,35.2,29.95,NE,51,0.0,0.0,73,0.00,,-RA,0.02,VWS V14.01,2013-03-28 22:16:00,
2013-03-28 18:21:00,43.3,35.2,29.95,NE,51,0.0,0.0,73,0.00,,-RA,0.02,VWS V14.01,2013-03-28 22:21:00,
2013-03-28 18:26:00,43.2,35.5,29.95,SSW,194,0.0,0.0,74,0.00,,-RA,0.02,VWS V14.01,2013-03-28 22:26:00,
2013-03-28 18:31:00,43.2,35.5,29.96,SW,219,0.0,1.0,74,0.00,,-RA,0.02,VWS V14.01,2013-03-28 22:31:00,
2013-03-28 18:36:00,43.1,35.4,29.96,SW,219,0.0,1.0,74,0.00,,-RA,0.02,VWS V14.01,2013-03-28 22:36:00,
2013-03-28 18:41:00,43.1,35.4,29.96,SW,219,0.0,1.0,74,0.00,,-RA,0.02,VWS V14.01,2013-03-28 22:41:00,
2013-03-28 18:47:00,43.0,35.6,29.96,SW,218,0.0,1.0,75,0.00,,-RA,0.02,VWS V14.01,2013-03-28 22:47:00,
2013-03-28 18:52:00,43.0,35.6,29.96,SW,219,0.0,1.0,75,0.00,,-RA,0.02,VWS V14.01,2013-03-28 22:52:00,
2013-03-28 18:57:00,42.8,35.4,29.97,SW,218,0.0,1.0,75,0.00,,-RA,0.02,VWS V14.01,2013-03-28 22:57:00,
2013-03-28 19:02:00,42.7,35.7,29.97,SW,218,0.0,0.0,76,0.00,,OVC070,0.02,VWS V14.01,2013-03-28 23:02:00,
2013-03-28 19:07:00,42.7,35.3,29.97,SW,219,0.0,0.0,75,0.00,,OVC070,0.02,VWS V14.01,2013-03-28 23:07:00,
2013-03-28 19:12:00,42.6,35.2,29.97,SW,219,0.0,0.0,75,0.00,,OVC070,0.02,VWS V14.01,2013-03-28 23:12:00,
2013-03-28 19:17:00,42.5,35.2,29.97,SW,219,0.0,0.0,75,0.00,,OVC070,0.02,VWS V14.01,2013-03-28 23:17:00,
2013-03-28 19:22:00,42.5,35.5,29.97,SW,219,0.0,0.0,76,0.00,,OVC070,0.02,VWS V14.01,2013-03-28 23:22:00,
2013-03-28 19:27:00,42.4,35.4,29.97,SW,219,0.0,1.0,76,0.00,,OVC070,0.02,VWS V14.01,2013-03-28 23:27:00,
2013-03-28 19:32:00,42.4,35.4,29.97,SW,219,0.0,1.0,76,0.00,,OVC070,0.02,VWS V14.01,2013-03-28 23:32:00,
2013-03-28 19:37:00,42.4,35.4,29.98,SW,219,0.0,1.0,76,0.00,,OVC070,0.02,VWS V14.01,2013-03-28 23:37:00,
2013-03-28 19:42:00,42.3,35.0,29.98,SSW,213,1.0,2.0,75,0.00,,OVC070,0.02,VWS V14.01,2013-03-28 23:42:00,
2013-03-28 19:47:00,42.2,35.2,29.98,SSW,210,0.0,2.0,76,0.00,,OVC070,0.02,VWS V14.01,2013-03-28 23:47:00,
2013-03-28 19:52:00,42.2,34.9,29.98,SSW,210,0.0,2.0,75,0.00,,OVC070,0.02,VWS V14.01,2013-03-28 23:52:00,
2013-03-28 19:57:00,42.0,34.7,29.98,SSW,210,0.0,2.0,75,0.00,,OVC070,0.02,VWS V14.01,2013-03-28 23:57:00,
2013-03-28 20:02:00,41.9,34.9,29.98,SSW,210,0.0,1.0,76,0.00,,BKN090,0.02,VWS V14.01,2013-03-29 00:02:00,
2013-03-28 20:07:00,41.9,34.9,29.98,WSW,253,1.0,1.0,76,0.00,,BKN090,0.02,VWS V14.01,2013-03-29 00:07:00,
2013-03-28 20:12:00,41.9,34.9,29.98,SSW,205,0.0,1.0,76,0.00,,BKN090,0.02,VWS V14.01,2013-03-29 00:12:00,
2013-03-28 20:17:00,41.8,34.8,29.98,SW,215,2.0,2.0,76,0.00,,BKN090,0.02,VWS V14.01,2013-03-29 00:17:00,
2013-03-28 20:22:00,41.9,34.9,29.98,SSW,203,0.0,2.0,76,0.00,,BKN090,0.02,VWS V14.01,2013-03-29 00:22:00,
2013-03-28 20:27:00,41.7,34.7,29.98,SSW,203,0.0,2.0,76,0.00,,BKN090,0.02,VWS V14.01,2013-03-29 00:27:00,
2013-03-28 20:32:00,41.6,34.6,29.99,SSW,203,0.0,2.0,76,0.00,,BKN090,0.02,VWS V14.01,2013-03-29 00:32:00,
2013-03-28 20:37:00,41.6,34.6,29.99,SSW,203,0.0,2.0,76,0.00,,BKN090,0.02,VWS V14.01,2013-03-29 00:37:00,
2013-03-28 20:42:00,41.4,34.4,29.99,SSW,203,0.0,2.0,76,0.00,,BKN090,0.02,VWS V14.01,2013-03-29 00:42:00,
2013-03-28 20:47:00,41.3,34.7,29.99,SSW,203,0.0,2.0,77,0.00,,BKN090,0.02,VWS V14.01,2013-03-29 00:47:00,
2013-03-28 20:52:00,41.2,34.5,29.99,SSW,203,0.0,2.0,77,0.00,,BKN090,0.02,VWS V14.01,2013-03-29 00:52:00,
2013-03-28 20:57:00,41.1,34.5,29.99,SSW,203,0.0,2.0,77,0.00,,BKN090,0.02,VWS V14.01,2013-03-29 00:57:00,
2013-03-28 21:02:00,41.0,34.3,29.99,SSW,202,0.0,0.0,77,0.00,,OVC090,0.02,VWS V14.01,2013-03-29 01:02:00,
2013-03-28 21:07:00,40.9,34.3,29.99,SSW,203,0.0,0.0,77,0.00,,OVC090,0.02,VWS V14.01,2013-03-29 01:07:00,
2013-03-28 21:12:00,40.8,34.2,29.99,SSW,202,0.0,0.0,77,0.00,,OVC090,0.02,VWS V14.01,2013-03-29 01:12:00,
2013-03-28 21:17:00,40.8,34.2,30.00,SSW,203,0.0,0.0,77,0.00,,OVC090,0.02,VWS V14.01,2013-03-29 01:17:00,
2013-03-28 21:22:00,40.7,34.4,30.00,SSW,203,0.0,0.0,78,0.00,,OVC090,0.02,VWS V14.01,2013-03-29 01:22:00,
2013-03-28 21:27:00,40.8,34.5,30.00,SSW,203,0.0,0.0,78,0.00,,OVC090,0.02,VWS V14.01,2013-03-29 01:27:00,
2013-03-28 21:32:00,40.8,34.5,30.00,SSW,203,0.0,0.0,78,0.00,,OVC090,0.02,VWS V14.01,2013-03-29 01:32:00,
2013-03-28 21:37:00,40.7,34.4,30.00,SSW,203,0.0,0.0,78,0.00,,OVC090,0.02,VWS V14.01,2013-03-29 01:37:00,
2013-03-28 21:42:00,40.6,34.3,30.00,SSW,203,0.0,0.0,78,0.00,,OVC090,0.02,VWS V14.01,2013-03-29 01:42:00,
2013-03-28 21:47:00,40.6,34.0,30.00,SSW,203,0.0,0.0,77,0.00,,OVC090,0.02,VWS V14.01,2013-03-29 01:47:00,
2013-03-28 21:52:00,40.6,34.0,30.00,SSW,203,0.0,0.0,77,0.00,,OVC090,0.02,VWS V14.01,2013-03-29 01:52:00,
2013-03-28 21:58:00,40.6,33.6,30.00,SSW,203,0.0,0.0,76,0.00,,OVC090,0.02,VWS V14.01,2013-03-29 01:58:00,
2013-03-28 22:03:00,40.6,33.6,30.00,SSW,203,0.0,0.0,76,0.00,,OVC090,0.02,VWS V14.01,2013-03-29 02:03:00,
2013-03-28 22:08:00,40.7,33.7,30.00,SSW,203,0.0,0.0,76,0.00,,OVC090,0.02,VWS V14.01,2013-03-29 02:08:00,
2013-03-28 22:13:00,40.8,33.5,30.00,SSW,203,0.0,0.0,75,0.00,,OVC090,0.02,VWS V14.01,2013-03-29 02:13:00,
2013-03-28 22:18:00,40.9,33.3,30.00,SSW,203,0.0,0.0,74,0.00,,OVC090,0.02,VWS V14.01,2013-03-29 02:18:00,
2013-03-28 22:23:00,41.1,33.5,30.00,West,261,0.0,0.0,74,0.00,,OVC090,0.02,VWS V14.01,2013-03-29 02:23:00,
2013-03-28 22:28:00,41.4,33.4,30.00,WSW,257,0.0,2.0,73,0.00,,OVC090,0.02,VWS V14.01,2013-03-29 02:28:00,
2013-03-28 22:33:00,41.5,33.2,30.00,West,280,0.0,2.0,72,0.00,,OVC090,0.02,VWS V14.01,2013-03-29 02:33:00,
2013-03-28 22:38:00,41.4,33.1,30.00,West,280,0.0,2.0,72,0.00,,OVC090,0.02,VWS V14.01,2013-03-29 02:38:00,
2013-03-28 22:43:00,41.5,33.2,30.00,West,280,0.0,2.0,72,0.00,,OVC090,0.02,VWS V14.01,2013-03-29 02:43:00,
2013-03-28 22:48:00,41.4,33.1,30.00,West,280,0.0,2.0,72,0.00,,OVC090,0.02,VWS V14.01,2013-03-29 02:48:00,
2013-03-28 22:53:00,41.5,32.8,30.00,West,279,0.0,2.0,71,0.00,,OVC090,0.02,VWS V14.01,2013-03-29 02:53:00,
2013-03-28 22:58:00,41.5,32.8,30.00,West,279,0.0,2.0,71,0.00,,OVC090,0.02,VWS V14.01,2013-03-29 02:58:00,
2013-03-28 23:03:00,41.5,32.8,30.00,West,278,0.0,0.0,71,0.00,,OVC095,0.02,VWS V14.01,2013-03-29 03:03:00,
2013-03-28 23:08:00,41.3,32.6,30.00,West,279,0.0,0.0,71,0.00,,OVC095,0.02,VWS V14.01,2013-03-29 03:08:00,
2013-03-28 23:13:00,41.2,32.9,30.00,West,279,0.0,0.0,72,0.00,,OVC095,0.02,VWS V14.01,2013-03-29 03:13:00,
2013-03-28 23:18:00,41.1,32.8,30.00,West,279,0.0,0.0,72,0.00,,OVC095,0.02,VWS V14.01,2013-03-29 03:18:00,
2013-03-28 23:23:00,40.9,32.6,30.00,West,278,0.0,0.0,72,0.00,,OVC095,0.02,VWS V14.01,2013-03-29 03:23:00,
2013-03-28 23:28:00,40.8,32.5,30.00,West,278,0.0,0.0,72,0.00,,OVC095,0.02,VWS V14.01,2013-03-29 03:28:00,
2013-03-28 23:33:00,40.7,32.4,30.00,West,279,0.0,0.0,72,0.00,,OVC095,0.02,VWS V14.01,2013-03-29 03:33:00,
2013-03-28 23:38:00,40.8,32.5,30.00,West,279,0.0,0.0,72,0.00,,OVC095,0.02,VWS V14.01,2013-03-29 03:38:00,
2013-03-28 23:43:00,41.0,32.7,30.00,West,278,0.0,0.0,72,0.00,,OVC095,0.02,VWS V14.01,2013-03-29 03:43:00,
2013-03-28 23:48:00,40.9,32.6,30.00,West,279,0.0,0.0,72,0.00,,OVC095,0.02,VWS V14.01,2013-03-29 03:48:00,
2013-03-28 23:53:00,40.8,32.8,30.00,West,279,0.0,0.0,73,0.00,,OVC095,0.02,VWS V14.01,2013-03-29 03:53:00,
2013-03-28 23:58:00,40.7,32.7,30.00,West,279,0.0,0.0,73,0.00,,OVC095,0.02,VWS V14.01,2013-03-29 03:58:00,